• En España
  • Lista de países
  • Para 7 días
  • Temperatura del agua
  • Mapa Satelital
  • El tiempo en el mapa
  • Informadores
  • user-avatar
    Iniciar sesión

    Tiempo cada hora Borisovka

    Hoy, 17 Julio, Martes

    Tiempo Temperatura Precipitaciones Viento Presión Humedad
    00:00 +20°C° 0 mm 3 mps 734 mmHg 94%
    01:00 +19°C° 0 mm 3 mps 734 mmHg 95%
    02:00 +19°C° 0 mm 3 mps 733 mmHg 95%
    03:00 +19°C° 0 mm 3 mps 733 mmHg 95%
    04:00 +19°C° 0 mm 3 mps 733 mmHg 95%
    05:00 +19°C° 0 mm 3 mps 733 mmHg 95%
    06:00 +20°C° 0,4 mm 3 mps 733 mmHg 93%
    07:00 +21°C° 0,4 mm 3 mps 733 mmHg 92%
    08:00 +22°C° 0,4 mm 4 mps 733 mmHg 90%
    09:00 +22°C° 0,7 mm 4 mps 733 mmHg 88%
    10:00 +23°C° 0,7 mm 4 mps 733 mmHg 85%
    11:00 +25°C° 0,7 mm 4 mps 732 mmHg 83%
    12:00 +25°C° 0,7 mm 4 mps 732 mmHg 84%
    13:00 +23°C° 0,7 mm 4 mps 732 mmHg 86%
    14:00 +23°C° 0,7 mm 4 mps 732 mmHg 88%
    15:00 +23°C° 0,6 mm 4 mps 732 mmHg 88%
    16:00 +24°C° 0,6 mm 3 mps 732 mmHg 88%
    17:00 +24°C° 0,6 mm 3 mps 732 mmHg 89%
    18:00 +22°C° 0,3 mm 3 mps 732 mmHg 90%
    19:00 +21°C° 0,3 mm 3 mps 732 mmHg 92%
    20:00 +20°C° 0,3 mm 2 mps 732 mmHg 94%
    21:00 +20°C° 0,1 mm 2 mps 732 mmHg 95%
    22:00 +19°C° 0,1 mm 2 mps 731 mmHg 95%
    23:00 +19°C° 0,1 mm 2 mps 731 mmHg 96%

    Mañana, 18 Julio, Miércoles

    Tiempo Temperatura Precipitaciones Viento Presión Humedad
    00:00 +19°C° 0,3 mm 2 mps 731 mmHg 96%
    01:00 +19°C° 0,3 mm 3 mps 731 mmHg 96%
    02:00 +19°C° 0,3 mm 3 mps 731 mmHg 96%
    03:00 +19°C° 0,1 mm 3 mps 731 mmHg 96%
    04:00 +19°C° 0,1 mm 3 mps 731 mmHg 96%
    05:00 +19°C° 0,1 mm 4 mps 731 mmHg 96%
    06:00 +20°C° 0,4 mm 4 mps 730 mmHg 96%
    07:00 +20°C° 0,4 mm 4 mps 730 mmHg 96%
    08:00 +20°C° 0,4 mm 4 mps 730 mmHg 95%
    09:00 +21°C° 0,4 mm 4 mps 730 mmHg 93%
    10:00 +22°C° 0,4 mm 4 mps 730 mmHg 90%
    11:00 +23°C° 0,4 mm 4 mps 730 mmHg 88%
    12:00 +23°C° 0,9 mm 5 mps 730 mmHg 86%
    13:00 +25°C° 0,9 mm 5 mps 730 mmHg 84%
    14:00 +25°C° 0,9 mm 5 mps 730 mmHg 82%
    15:00 +25°C° 0,5 mm 5 mps 730 mmHg 82%
    16:00 +25°C° 0,5 mm 4 mps 730 mmHg 83%
    17:00 +25°C° 0,5 mm 4 mps 730 mmHg 83%
    18:00 +24°C° 0,1 mm 3 mps 730 mmHg 87%
    19:00 +21°C° 0,1 mm 3 mps 730 mmHg 90%
    20:00 +20°C° 0,1 mm 2 mps 730 mmHg 94%
    21:00 +20°C° 0 mm 2 mps 730 mmHg 95%
    22:00 +19°C° 0 mm 2 mps 730 mmHg 96%
    23:00 +19°C° 0 mm 2 mps 730 mmHg 96%

    Pasado mañana, 19 Julio, Jueves

    Tiempo Temperatura Precipitaciones Viento Presión Humedad
    00:00 +19°C° 0 mm 1 mps 730 mmHg 97%
    01:00 +19°C° 0 mm 1 mps 730 mmHg 97%
    02:00 +19°C° 0 mm 1 mps 731 mmHg 98%
    03:00 +19°C° 0,1 mm 1 mps 731 mmHg 97%
    04:00 +19°C° 0,1 mm 1 mps 731 mmHg 97%
    05:00 +20°C° 0,1 mm 1 mps 731 mmHg 97%
    06:00 +20°C° 0,1 mm 1 mps 731 mmHg 95%
    07:00 +21°C° 0,1 mm 1 mps 732 mmHg 94%
    08:00 +20°C° 0,1 mm 2 mps 732 mmHg 92%
    09:00 +23°C° 0,4 mm 2 mps 732 mmHg 88%
    10:00 +24°C° 0,4 mm 2 mps 732 mmHg 84%
    11:00 +25°C° 0,4 mm 3 mps 732 mmHg 79%
    12:00 +25°C° 0,8 mm 3 mps 732 mmHg 77%
    13:00 +26°C° 0,8 mm 3 mps 732 mmHg 75%
    14:00 +26°C° 0,8 mm 3 mps 732 mmHg 73%
    15:00 +26°C° 0,7 mm 2 mps 732 mmHg 74%
    16:00 +26°C° 0,7 mm 2 mps 732 mmHg 75%
    17:00 +26°C° 0,7 mm 2 mps 732 mmHg 77%
    18:00 +25°C° 0,1 mm 2 mps 733 mmHg 82%
    19:00 +23°C° 0,1 mm 2 mps 733 mmHg 86%
    20:00 +21°C° 0,1 mm 3 mps 733 mmHg 91%
    21:00 +21°C° 0 mm 2 mps 733 mmHg 93%
    22:00 +20°C° 0 mm 2 mps 733 mmHg 94%
    23:00 +20°C° 0 mm 2 mps 733 mmHg 95%

    20 Julio, Viernes

    Tiempo Temperatura Precipitaciones Viento Presión Humedad
    00:00 +20°C° 0,5 mm 2 mps 733 mmHg 95%
    01:00 +19°C° 0,5 mm 2 mps 733 mmHg 96%
    02:00 +19°C° 0,5 mm 2 mps 733 mmHg 96%
    03:00 +19°C° 0,5 mm 2 mps 733 mmHg 96%
    04:00 +19°C° 0,5 mm 2 mps 733 mmHg 96%
    05:00 +19°C° 0,5 mm 2 mps 734 mmHg 96%
    06:00 +20°C° 0,3 mm 3 mps 734 mmHg 94%
    07:00 +21°C° 0,3 mm 3 mps 734 mmHg 92%
    08:00 +22°C° 0,3 mm 3 mps 734 mmHg 90%
    09:00 +22°C° 0,1 mm 3 mps 734 mmHg 88%
    10:00 +24°C° 0,1 mm 3 mps 734 mmHg 86%
    11:00 +24°C° 0,1 mm 3 mps 734 mmHg 84%
    12:00 +25°C° 0,2 mm 3 mps 734 mmHg 82%
    13:00 +25°C° 0,2 mm 3 mps 734 mmHg 80%
    14:00 +26°C° 0,2 mm 3 mps 735 mmHg 78%
    15:00 +26°C° 0,3 mm 3 mps 735 mmHg 78%
    16:00 +26°C° 0,3 mm 3 mps 735 mmHg 79%
    17:00 +26°C° 0,3 mm 3 mps 735 mmHg 79%
    18:00 +25°C° 0,1 mm 2 mps 735 mmHg 83%
    19:00 +24°C° 0,1 mm 2 mps 735 mmHg 87%
    20:00 +23°C° 0,1 mm 2 mps 735 mmHg 92%
    21:00 +21°C° 0 mm 2 mps 735 mmHg 93%
    22:00 +21°C° 0 mm 2 mps 735 mmHg 94%
    23:00 +20°C° 0 mm 2 mps 735 mmHg 95%

    21 Julio, Sábado

    Tiempo Temperatura Precipitaciones Viento Presión Humedad
    00:00 +20°C° 0 mm 2 mps 735 mmHg 95%
    01:00 +20°C° 0 mm 2 mps 735 mmHg 95%
    02:00 +19°C° 0 mm 2 mps 735 mmHg 96%
    03:00 +19°C° 0 mm 2 mps 735 mmHg 96%
    04:00 +19°C° 0 mm 2 mps 735 mmHg 96%
    05:00 +20°C° 0 mm 2 mps 735 mmHg 96%
    06:00 +21°C° 0 mm 2 mps 735 mmHg 92%
    07:00 +23°C° 0 mm 2 mps 735 mmHg 87%
    08:00 +25°C° 0 mm 2 mps 735 mmHg 83%
    09:00 +26°C° 0,3 mm 3 mps 735 mmHg 79%
    10:00 +27°C° 0,3 mm 3 mps 735 mmHg 75%
    11:00 +27°C° 0,3 mm 3 mps 735 mmHg 71%
    12:00 +28°C° 0,2 mm 3 mps 735 mmHg 70%
    13:00 +28°C° 0,2 mm 3 mps 735 mmHg 68%
    14:00 +29°C° 0,2 mm 4 mps 735 mmHg 67%
    15:00 +28°C° 1 mm 3 mps 735 mmHg 71%
    16:00 +28°C° 1 mm 3 mps 735 mmHg 75%
    17:00 +27°C° 1 mm 3 mps 735 mmHg 79%
    18:00 +26°C° 0,2 mm 2 mps 735 mmHg 83%
    19:00 +24°C° 0,2 mm 2 mps 735 mmHg 86%
    20:00 +23°C° 0,2 mm 2 mps 735 mmHg 90%
    21:00 +23°C° 0 mm 2 mps 735 mmHg 91%
    22:00 +21°C° 0 mm 2 mps 735 mmHg 93%
    23:00 +21°C° 0 mm 2 mps 736 mmHg 94%

    22 Julio, Domingo

    Tiempo Temperatura Precipitaciones Viento Presión Humedad
    00:00 +21°C° 0 mm 2 mps 736 mmHg 95%
    01:00 +20°C° 0 mm 2 mps 736 mmHg 95%
    02:00 +20°C° 0 mm 2 mps 735 mmHg 96%
    03:00 +21°C° 0 mm 1 mps 736 mmHg 96%
    04:00 +21°C° 0 mm 1 mps 736 mmHg 96%
    05:00 +21°C° 0 mm 1 mps 736 mmHg 96%
    06:00 +22°C° 0 mm 1 mps 736 mmHg 92%
    07:00 +23°C° 0 mm 2 mps 736 mmHg 88%
    08:00 +24°C° 0 mm 2 mps 736 mmHg 84%
    09:00 +25°C° 0,1 mm 2 mps 736 mmHg 80%
    10:00 +26°C° 0,1 mm 2 mps 736 mmHg 75%
    11:00 +27°C° 0,1 mm 3 mps 736 mmHg 71%
    12:00 +28°C° 0,1 mm 2 mps 736 mmHg 69%
    13:00 +28°C° 0,1 mm 2 mps 736 mmHg 66%
    14:00 +29°C° 0,1 mm 1 mps 736 mmHg 64%
    15:00 +28°C° 0,3 mm 2 mps 735 mmHg 66%
    16:00 +28°C° 0,3 mm 2 mps 735 mmHg 69%
    17:00 +28°C° 0,3 mm 2 mps 735 mmHg 71%
    18:00 +27°C° 0,4 mm 2 mps 735 mmHg 77%
    19:00 +25°C° 0,4 mm 1 mps 735 mmHg 82%
    20:00 +23°C° 0,4 mm 1 mps 735 mmHg 88%
    21:00 +23°C° 0,1 mm 1 mps 735 mmHg 89%
    22:00 +22°C° 0,1 mm 1 mps 735 mmHg 91%
    23:00 +22°C° 0,1 mm 1 mps 736 mmHg 93%
    Mostrar más